Tracking 19246 objects as of 21-Aug-2018
HD Live streaming from Space Station
objects crossing your sky now

COSMOS 2275 (GLONASS)

Track COSMOS 2275 (GLONASS) now!
COSMOS 2275 (GLONASS) is classified as:


NORAD ID: 23045
Int'l Code: 1994-021C
Perigee: 19,071.8 km
Apogee: 19,202.3 km
Inclination: 64.6 °
Period: 675.7 minutes
Semi major axis: 25507 km
RCS: 3.4477 m2 (large)
Launch date: April 11, 1994
Source: Commonwealth of Independent States (former USSR) (CIS)
Launch site: TYURATAM MISSILE AND SPACE COMPLEX (TTMTR)
SV:
aabbcc
Your satellite tracking list
Your tracking list is empty




NASA's NSSDC Master Catalog

Two Line Element Set (TLE):
1 23045U 94021C   18232.59945709 -.00000029 +00000-0 +00000-0 0  9996
2 23045 064.5969 040.5789 0025579 038.0418 020.0544 02.13102306189337
Source of the keplerian elements: AFSPC